| time (UTC) | temp F | wind direction | speed MPH | gust MPH | rain 1hr in | rain 24hr in | rain mn in | humidity % | barometer mb |
| 20260505124556 | 42 | 13 | 8.0 | 13.0 | 0.00 | 0.41 | 0.01 | 86 | 1011.8 |
| 20260505123055 | 42 | 13 | 7.0 | 13.0 | 0.00 | 0.41 | 0.01 | 85 | 1011.6 |
| 20260505121542 | 42 | 13 | 11.0 | 15.0 | 0.00 | 0.41 | 0.01 | 85 | 1011.8 |
| 20260505120101 | 42 | 13 | 10.0 | 16.0 | 0.00 | 0.41 | 0.01 | 84 | 1011.8 |
| 20260505114545 | 42 | 13 | 10.0 | 16.0 | 0.00 | 0.41 | 0.01 | 84 | 1011.7 |
| 20260505113047 | 42 | 13 | 12.0 | 19.0 | 0.00 | 0.41 | 0.01 | 84 | 1011.6 |
| 20260505111544 | 42 | 13 | 13.0 | 17.0 | 0.00 | 0.41 | 0.01 | 84 | 1011.6 |
| 20260505101542 | 42 | 13 | 15.0 | 20.0 | 0.00 | 0.41 | 0.01 | 84 | 1011.9 |
| 20260505100045 | 42 | 13 | 13.0 | 18.0 | 0.00 | 0.41 | 0.01 | 84 | 1011.9 |
| 20260505094542 | 42 | 13 | 12.0 | 20.0 | 0.00 | 0.41 | 0.01 | 84 | 1011.9 |
| 20260505093043 | 42 | 13 | 17.0 | 24.0 | 0.00 | 0.41 | 0.01 | 84 | 1011.9 |
| 20260505091540 | 41 | 13 | 16.0 | 21.0 | 0.00 | 0.41 | 0.01 | 86 | 1011.9 |
| 20260505090044 | 42 | 13 | 17.0 | 24.0 | 0.00 | 0.41 | 0.01 | 85 | 1012.1 |
| 20260505084545 | 42 | 13 | 14.0 | 19.0 | 0.00 | 0.41 | 0.01 | 84 | 1012.2 |
| 20260505083048 | 43 | 13 | 14.0 | 20.0 | 0.01 | 0.41 | 0.01 | 84 | 1012.5 |
| 20260505081541 | 42 | 13 | 17.0 | 22.0 | 0.01 | 0.41 | 0.01 | 84 | 1012.7 |
| 20260505080042 | 42 | 13 | 14.0 | 20.0 | 0.01 | 0.41 | 0.01 | 86 | 1012.9 |
| 20260505074541 | 41 | 13 | 14.0 | 19.0 | 0.01 | 0.41 | 0.01 | 86 | 1012.5 |
| 20260505073054 | 41 | 13 | 8.0 | 12.0 | 0.00 | 0.40 | 0.00 | 90 | 1013.2 |
| 20260505071552 | 41 | 13 | 7.0 | 18.0 | 0.00 | 0.40 | 0.00 | 84 | 1013.1 |
| 20260505070046 | 41 | 13 | 12.0 | 17.0 | 0.00 | 0.40 | 0.00 | 84 | 1012.5 |
| 20260505064544 | 42 | 360 | 12.0 | 30.0 | 0.00 | 0.40 | 0.40 | 83 | 1012.6 |
| 20260505063041 | 42 | 13 | 16.0 | 24.0 | 0.00 | 0.40 | 0.40 | 82 | 1011.8 |
| 20260505061552 | 42 | 13 | 14.0 | 25.0 | 0.00 | 0.40 | 0.40 | 83 | 1011.9 |
| 20260505060045 | 41 | 13 | 18.0 | 25.0 | 0.00 | 0.40 | 0.40 | 84 | 1011.8 |
| 20260505054605 | 41 | 13 | 15.0 | 24.0 | 0.00 | 0.40 | 0.40 | 85 | 1012.0 |
| 20260505053057 | 41 | 13 | 17.0 | 24.0 | 0.00 | 0.40 | 0.40 | 86 | 1012.6 |
| 20260505051541 | 41 | 13 | 18.0 | 27.0 | 0.00 | 0.40 | 0.40 | 85 | 1012.8 |
| 20260505041541 | 41 | 13 | 17.0 | 24.0 | 0.06 | 0.40 | 0.40 | 89 | 1012.5 |
| 20260505040042 | 41 | 13 | 11.0 | 16.0 | 0.06 | 0.39 | 0.39 | 88 | 1012.9 |
| 20260505034539 | 41 | 13 | 12.0 | 20.0 | 0.06 | 0.38 | 0.38 | 88 | 1012.7 |
| 20260505033047 | 41 | 13 | 16.0 | 25.0 | 0.05 | 0.37 | 0.37 | 86 | 1012.4 |
| 20260505031557 | 41 | 13 | 19.0 | 28.0 | 0.02 | 0.34 | 0.34 | 85 | 1012.2 |
| 20260505030042 | 41 | 13 | 13.0 | 21.0 | 0.03 | 0.33 | 0.33 | 85 | 1012.4 |
| 20260505024542 | 42 | 13 | 13.0 | 24.0 | 0.06 | 0.32 | 0.32 | 84 | 1013.1 |
| 20260505023049 | 41 | 13 | 16.0 | 23.0 | 0.13 | 0.32 | 0.32 | 86 | 1012.7 |
| 20260505021545 | 42 | 13 | 21.0 | 28.0 | 0.19 | 0.32 | 0.32 | 86 | 1012.1 |
| 20260505020045 | 42 | 13 | 20.0 | 32.0 | 0.21 | 0.30 | 0.30 | 87 | 1012.2 |
| 20260505014544 | 43 | 14 | 17.0 | 23.0 | 0.20 | 0.25 | 0.25 | 92 | 1012.9 |
| 20260505013045 | 43 | 14 | 13.0 | 21.0 | 0.13 | 0.18 | 0.18 | 86 | 1013.6 |
| 20260505011541 | 44 | 14 | 11.0 | 22.0 | 0.08 | 0.13 | 0.13 | 84 | 1012.9 |
| 20260505010046 | 45 | 13 | 13.0 | 20.0 | 0.04 | 0.09 | 0.09 | 80 | 1012.0 |
| 20260505004552 | 46 | 13 | 14.0 | 27.0 | 0.00 | 0.05 | 0.05 | 74 | 1012.1 |
| 20260505003043 | 47 | 360 | 18.0 | 30.0 | 0.00 | 0.05 | 0.05 | 73 | 1011.9 |
| 20260505001541 | 48 | 11 | 21.0 | 34.0 | 0.00 | 0.05 | 0.05 | 71 | 1011.6 |
| 20260505000057 | 50 | 9 | 18.0 | 28.0 | 0.00 | 0.05 | 0.05 | 67 | 1011.4 |
| 20260504234541 | 51 | 9 | 18.0 | 31.0 | 0.00 | 0.06 | 0.05 | 66 | 1011.4 |
| 20260504233043 | 52 | 9 | 17.0 | 31.0 | 0.00 | 0.06 | 0.05 | 64 | 1011.4 |
| 20260504231545 | 51 | 9 | 17.0 | 27.0 | 0.00 | 0.06 | 0.05 | 67 | 1011.2 |
| 20260504230100 | 51 | 9 | 17.0 | 26.0 | 0.00 | 0.06 | 0.05 | 68 | 1011.5 |
| 20260504224541 | 50 | 9 | 14.0 | 24.0 | 0.00 | 0.09 | 0.05 | 69 | 1011.8 |
| 20260504223041 | 51 | 11 | 14.0 | 24.0 | 0.00 | 0.09 | 0.05 | 69 | 1011.9 |
| 20260504221554 | 52 | 9 | 16.0 | 26.0 | 0.00 | 0.09 | 0.05 | 66 | 1011.8 |
| 20260504220042 | 53 | 15 | 14.0 | 29.0 | 0.00 | 0.09 | 0.05 | 69 | 1011.8 |
| 20260504214542 | 52 | 9 | 18.0 | 29.0 | 0.00 | 0.09 | 0.05 | 68 | 1011.7 |
| 20260504213046 | 52 | 9 | 13.0 | 22.0 | 0.01 | 0.09 | 0.05 | 70 | 1012.2 |
| 20260504211545 | 50 | 9 | 13.0 | 23.0 | 0.03 | 0.09 | 0.05 | 77 | 1012.3 |
| 20260504210047 | 49 | 5 | 13.0 | 23.0 | 0.03 | 0.09 | 0.05 | 81 | 1012.3 |
| 20260504204543 | 49 | 9 | 11.0 | 17.0 | 0.03 | 0.09 | 0.05 | 80 | 1012.6 |
| 20260504203052 | 49 | 9 | 6.0 | 11.0 | 0.02 | 0.08 | 0.04 | 75 | 1012.5 |
| 20260504201543 | 49 | 11 | 8.0 | 17.0 | 0.00 | 0.06 | 0.02 | 73 | 1012.1 |
| 20260504200047 | 51 | 9 | 9.0 | 17.0 | 0.00 | 0.06 | 0.02 | 69 | 1012.4 |
| 20260504194544 | 51 | 9 | 11.0 | 17.0 | 0.00 | 0.06 | 0.02 | 68 | 1012.4 |
| 20260504193042 | 51 | 9 | 11.0 | 18.0 | 0.00 | 0.06 | 0.02 | 69 | 1012.4 |
| 20260504191543 | 51 | 9 | 12.0 | 20.0 | 0.00 | 0.06 | 0.02 | 68 | 1012.7 |
| 20260504190041 | 52 | 9 | 12.0 | 20.0 | 0.00 | 0.06 | 0.02 | 67 | 1012.7 |
| 20260504184542 | 52 | 9 | 12.0 | 19.0 | 0.00 | 0.06 | 0.02 | 69 | 1012.9 |
| 20260504183041 | 51 | 11 | 12.0 | 18.0 | 0.00 | 0.06 | 0.02 | 74 | 1012.9 |
| 20260504181545 | 49 | 9 | 11.0 | 17.0 | 0.00 | 0.06 | 0.02 | 77 | 1013.0 |
| 20260504180042 | 49 | 13 | 13.0 | 18.0 | 0.00 | 0.06 | 0.02 | 77 | 1013.2 |
| 20260504174542 | 48 | 9 | 12.0 | 18.0 | 0.00 | 0.06 | 0.02 | 78 | 1013.1 |
| 20260504173042 | 47 | 9 | 11.0 | 16.0 | 0.00 | 0.06 | 0.02 | 78 | 1013.3 |
| 20260504171542 | 47 | 9 | 10.0 | 13.0 | 0.01 | 0.06 | 0.02 | 81 | 1013.2 |